| time (UTC) | temp F | wind direction | speed MPH | gust MPH | rain 1hr in | rain 24hr in | rain mn in | humidity % | barometer mb |
| 20260906071303 | 87 | 93 | 0.0 | 3.0 | 0.00 | 0.00 | 0.00 | 37 | 995.3 |
| 20260906055909 | 69 | 186 | 0.0 | 0.0 | 0.00 | 0.00 | 0.00 | 77 | 1016.8 |
| 20260906052242 | 75 | 295 | 0.0 | 0.0 | 0.00 | 0.00 | 0.00 | 57 | 994.8 |
| 20260906041548 | 74 | 284 | 0.0 | 0.0 | 0.00 | 0.00 | 0.00 | 57 | 994.5 |
| 20260906035914 | 66 | 188 | 0.0 | 0.0 | 0.00 | 0.00 | 0.00 | 74 | 1016.1 |
| 20260906025908 | 67 | 188 | 0.0 | 0.0 | 0.00 | 0.00 | 0.00 | 74 | 1016.0 |
| 20260906021655 | 74 | 293 | 0.0 | 0.0 | 0.00 | 0.00 | 0.00 | 61 | 994.5 |
| 20260906015905 | 68 | 188 | 0.0 | 0.0 | 0.00 | 0.00 | 0.00 | 72 | 1016.1 |
| 20260906001136 | 77 | 285 | 0.0 | 0.0 | 0.00 | 0.00 | 0.00 | 68 | 994.9 |
| 20260905235907 | 70 | 188 | 0.0 | 0.0 | 0.00 | 0.00 | 0.00 | 69 | 1016.3 |
| 20260905220141 | 78 | 307 | 0.0 | 0.0 | 0.00 | 0.00 | 0.00 | 64 | 995.3 |
| 20260905215933 | 74 | 188 | 0.0 | 0.0 | 0.00 | 0.00 | 0.00 | 64 | 1016.5 |
| 20260905201523 | 80 | 239 | 0.0 | 2.0 | 0.00 | 0.00 | 0.00 | 69 | 995.3 |
| 20260905195915 | 79 | 190 | 0.0 | 2.0 | 0.00 | 0.00 | 0.00 | 60 | 1016.5 |
| 20260905181419 | 81 | 173 | 0.0 | 0.0 | 0.00 | 0.00 | 0.00 | 68 | 994.7 |
| 20260905175915 | 84 | 209 | 2.0 | 4.0 | 0.00 | 0.00 | 0.00 | 46 | 1015.3 |
| 20260905171407 | 84 | 178 | 0.0 | 0.0 | 0.00 | 0.00 | 0.00 | 64 | 994.7 |
| 20260905165858 | 89 | 182 | 3.0 | 10.0 | 0.00 | 0.00 | 0.00 | 42 | 1014.5 |
| 20260905161055 | 85 | 86 | 0.0 | 2.0 | 0.00 | 0.00 | 0.00 | 63 | 994.5 |
| 20260905145909 | 93 | 238 | 5.0 | 11.0 | 0.00 | 0.00 | 0.00 | 37 | 1014.9 |
| 20260905141519 | 88 | 49 | 4.0 | 10.0 | 0.00 | 0.00 | 0.00 | 46 | 994.5 |
| 20260905125904 | 97 | 197 | 4.0 | 10.0 | 0.00 | 0.00 | 0.00 | 32 | 1015.4 |
| 20260905121523 | 88 | 90 | 1.0 | 9.0 | 0.00 | 0.00 | 0.00 | 49 | 995.3 |
| 20260905105907 | 92 | 205 | 2.0 | 8.0 | 0.00 | 0.00 | 0.00 | 42 | 1015.8 |
| 20260905101556 | 87 | 173 | 3.0 | 6.0 | 0.00 | 0.00 | 0.00 | 58 | 995.5 |
| 20260905090005 | 86 | 87 | 1.0 | 6.0 | 0.00 | 0.00 | 0.00 | 57 | 995.7 |
| 20260905085910 | 83 | 321 | 2.0 | 5.0 | 0.00 | 0.00 | 0.00 | 56 | 1016.2 |